COSMOS 1275 DEB, 13484

Orbit data source: Space-Track

COSMOS 1275 DEB, 13484 is space debris in LEO originally from a launch on Thu, 04 Jun 1981 UTC launched from the Plesetsk Missile And Space Complex (PKMTR). Debris objects in space refer to the collection of defunct objects orbiting the Earth. Examples of debris include non-operational satellites, rocket bodies, and fragments generated from explosions, collisions, or faulty payload assembly.

Loading next visibility...
Identifier
13484, 1981-053GE
Orbit
LEO
Country
Flag of CISCIS
Related business
Manufacturer
Unknown
Mission
Spacecraft
Bus & Motor
Unknown
Mass
Unknown
Launch date (UTC)
1981-06-04 (44 years ago)
Launch vehicle
Unknown
Launch site
Plesetsk Missile And Space Complex (PKMTR)
Object type
Payload
Rocket body
Debris
Shape & HBR
Unknown shape, 0.1 m
Radar Cross Section
Small (<0.1 m²)

Expand to show TLE details & history
Last TLE update: 7 hours ago

TLE from 7 hours ago
0 COSMOS 1275 DEB
1 13484U 81053GE  25291.20138234  .00001358  00000-0  87159-3 0  9999
2 13484  82.9216 176.5884 0031448 336.5306 147.5365 14.02349377191928
Epoch: 2025-10-18T04:49Z
TLE epoch observation values (Epoch: 2025-10-18T04:49:59.434Z)
Latitude
55.20224°
Longitude
-113.08332°
Altitude
914.126 km
Speed
7.39 km/s
True Right ascension
23h 05m 24s
True Declination
55° 02' 40"
Sunlit
Object was in full shadow at epoch
Visualization orbit readout
Latitude
Unknown
Longitude
Unknown
Altitude
Unknown
Speed
Unknown
Apparent Right ascension
Unknown
Apparent Declination
Unknown
Sunlit
N/A
Visualization observer readout
Local Sidereal Time
06:52:10
Azimuth
Unknown
Elevation
Unknown
Doppler factor
Unknown
Orbital elements
Apogee altitude
905.617 km
Perigee altitude
859.949 km
Semi-major axis
7,260.92 km
Eccentricity
0.00314
Inclination
82.9216°
RAAN
176.5884°
Arg. of periapsis
336.5306°
True anomaly
147.72929°
Mean anomaly
147.5365°
Eccentric anomaly
147.63296°
Mean motion
3.50797 °/min
Orbital period
102.62 mins
BSTAR
0.00087159
Loading maneuver chart data...
Computing Atmospheric mass density...

Documentation

Showing up to 5 results
|